Weather History for Danville, VA

Change the Weather History Date:

Tuesday, January 22, 2013

  Actual Average Record
Temperature  
Mean Temperature 31 °F 38 °F  
Max Temperature 40 °F 46 °F 67 °F (1957)
Min Temperature 22 °F 29 °F -4 °F (1985)
Degree Days  
Heating Degree Days 34 27  
Month to date heating degree days 470 605  
Since 1 July heating degree days 1871 2087  
Moisture  
Dew Point 0 °F    
Average Humidity 29    
Maximum Humidity 37    
Minimum Humidity 20    
Precipitation  
Precipitation 0.00 in 0.10 in 0.91 in (1993)
Month to date precipitation 6.00 2.37  
Year to date precipitation 6.00 2.37  
Snow  
Snow 0.00 in - - ()
Month to date snowfall 1.0  
Since 1 July snowfall 1.0  
Snow Depth 0.00 in    
Sea Level Pressure  
Sea Level Pressure 30.17 in    
Wind  
Wind Speed 9 mph (NW)    
Max Wind Speed 20 mph    
Max Gust Speed 28 mph    
Visibility 10 miles    
Events      
T = Trace of Precipitation, MM = Missing Value Source: NWS Daily Summary

Daily Weather History Graph

Daily Weather History Graph

Search for Another Location

Airport:

Trip Planner

Search our weather history database for the weather conditions in past years. The results will help you decide how hot, cold, wet, or windy it might be!

Date:

Astronomy

Jan. 22, 2013 Rise Set
Actual Time 7:25 AM EST 5:32 PM EST
Civil Twilight 6:57 AM EST 6:00 PM EST
Nautical Twilight 6:26 AM EST 6:31 PM EST
Astronomical Twilight 5:55 AM EST 7:02 PM EST
Moon 1:55 PM EST (1/22) 3:44 AM EST (1/22)
Length of Visible Light 11h 02m
Length of Day
10h 07m
Waxing Gibbous, 82% of the Moon is Illuminated
Jan 22
Waxing Gibbous
Jan 26
Full
Feb 3
Last Quarter
Feb 10
New
Feb 17
First Quarter

Hourly Weather History & Observations

Time (EST) Temp. Windchill Dew Point Humidity Pressure Visibility Wind Dir Wind Speed Gust Speed Precip Events Conditions
12:53 AM 37.9 °F 29.2 °F 7.0 °F 28% 29.97 in 10.0 mi NW 15.0 mph 20.7 mph N/A   Clear
1:53 AM 35.1 °F 27.9 °F 7.0 °F 31% 29.99 in 10.0 mi NW 9.2 mph - N/A   Clear
2:53 AM 33.1 °F 24.9 °F 7.0 °F 34% 30.02 in 10.0 mi NW 10.4 mph 17.3 mph N/A   Clear
3:53 AM 30.9 °F 23.5 °F 5.0 °F 33% 30.04 in 10.0 mi WNW 8.1 mph - N/A   Clear
4:53 AM 28.9 °F 21.9 °F 1.9 °F 32% 30.07 in 10.0 mi WNW 6.9 mph - N/A   Clear
5:53 AM 28.0 °F 20.8 °F 3.0 °F 34% 30.11 in 10.0 mi NW 6.9 mph - N/A   Clear
6:53 AM 27.0 °F 16.7 °F 3.0 °F 36% 30.15 in 10.0 mi NNW 11.5 mph - N/A   Clear
7:53 AM 26.1 °F 18.4 °F 1.9 °F 35% 30.18 in 10.0 mi NW 6.9 mph - N/A   Clear
8:53 AM 28.0 °F 16.5 °F -2.0 °F 27% 30.21 in 10.0 mi NNW 15.0 mph 23.0 mph N/A   Clear
9:53 AM 27.0 °F 16.1 °F -4.0 °F 26% 30.24 in 10.0 mi WNW 12.7 mph 18.4 mph N/A   Clear
10:53 AM 30.0 °F 18.7 °F -2.9 °F 24% 30.24 in 10.0 mi NW 16.1 mph - N/A   Clear
11:53 AM 30.9 °F 21.7 °F -2.9 °F 23% 30.22 in 10.0 mi WNW 11.5 mph - N/A   Clear
12:53 PM 33.1 °F 23.4 °F -4.0 °F 20% 30.20 in 10.0 mi WNW 13.8 mph - N/A   Clear
1:53 PM 33.1 °F 25.5 °F -2.0 °F 22% 30.18 in 10.0 mi West 9.2 mph 19.6 mph N/A   Clear
2:53 PM 35.1 °F 26.4 °F -2.9 °F 20% 30.17 in 10.0 mi NNW 12.7 mph - N/A   Clear
3:53 PM 34.0 °F 26.6 °F -4.0 °F 20% 30.18 in 10.0 mi NW 9.2 mph - N/A   Clear
4:53 PM 33.1 °F 27.7 °F -4.0 °F 20% 30.19 in 10.0 mi NW 5.8 mph - N/A   Clear
5:53 PM 28.9 °F 22.8 °F -2.0 °F 26% 30.22 in 10.0 mi North 5.8 mph - N/A   Clear
6:53 PM 28.0 °F - -2.0 °F 27% 30.23 in 10.0 mi Calm Calm - N/A   Clear
7:53 PM 26.1 °F 19.4 °F -0.0 °F 32% 30.24 in 10.0 mi NNW 5.8 mph - N/A   Clear
8:53 PM 26.1 °F - -2.0 °F 30% 30.25 in 10.0 mi Calm Calm - N/A   Clear
9:53 PM 26.1 °F 19.4 °F -0.9 °F 31% 30.27 in 10.0 mi NNW 5.8 mph - N/A   Clear
10:53 PM 25.0 °F 17.1 °F -2.0 °F 31% 30.28 in 10.0 mi NNW 6.9 mph - N/A   Clear
11:53 PM 23.0 °F 15.8 °F -0.0 °F 37% 30.28 in 10.0 mi NNW 5.8 mph - N/A   Clear